{"data":{"norad_id":65996,"epoch":"2026-09-20T04:48:30.639168Z","epoch_age_seconds":166305,"freshness":"FRESH","line1":"1 65996U 25231B   26263.20035462 -.00000105  00000+0  40897-4 0  9997","line2":"2 65996  49.9980 195.0852 0000500  58.7080 301.3841 13.29326623 45522","mean_motion":13.29326623,"eccentricity":5.0e-5,"inclination_deg":49.998,"raan_deg":195.0852,"arg_perigee_deg":58.708,"mean_anomaly_deg":301.3841,"bstar":4.0897e-5,"rev_number":4552,"period_min":108.32552174049,"perigee_km":1148.9278479265,"apogee_km":1149.6805920485,"semimajor_km":7527.4412199875,"source":"CELESTRAK","updated_at":"2026-09-21T09:00:15.692477Z"}}